Location: Aulus
(42.7909°N, 1.3399°E)
Time: 07:07:56
(UTC+00:00)

CENTAUR R/B - Pass Details

Date: 19 May 2025
Orbit: 644 x 1537 km, 63.4° (Epoch: 18 June)

Event Time Altitude Azimuth Distance (km) Brightness Sun altitude
Rises 23:13:38 0° 325° (NW) 4,130 6.8 -26.6°
Reaches altitude 10° 23:16:23 10° 331° (NNW) 3,279 6.1 -26.7°
Maximum altitude 23:24:20 50° 45° (NE) 1,775 4.0 -26.9°
Enters shadow 23:31:30 17° 114° (ESE) 3,158 4.9 -27.1°
